Location: Franzen
(48.6167°N, 15.3833°E)
Time: 14:08:34
(UTC+00:00)

ALOS 2 - Pass Details

Date: 22 April 2021
Orbit: 630 x 632 km, 97.9° (Epoch: 16 May)

Event Time Altitude Azimuth Distance (km) Brightness Sun altitude
Exits shadow 22:35:32 45° 325° (NW) 870 3.6 -28.7°
Drops below altitude 10° 22:38:41 10° 342° (NNW) 2,024 6.1 -28.7°
Sets 22:40:55 0° 345° (NNW) 2,937 7.2 -28.8°
